Location: Newark
(52.4787°S, 179.0532°W)
Time: 09:51:47
(UTC+00:00)

Envisat - Pass Details

Date: 24 October 2019
Orbit: 764 x 766 km, 98.1° (Epoch: 14 November)

Event Time Altitude Azimuth Distance (km) Brightness Sun altitude
Rises 09:30:55 0° 178° (S) 3,278 7.1 -20.0°
Reaches altitude 10° 09:35:54 10° 220° (SW) 2,341 6.7 -20.4°
Maximum altitude 09:36:21 10° 225° (SW) 2,333 6.6 -20.5°
Drops below altitude 10° 09:36:49 10° 230° (SW) 2,340 6.6 -20.5°
Sets 09:41:47 0° 272° (W) 3,256 6.6 -20.9°
